SPEEDR1 KLAL-KHST

Flight info

Callsign SPEEDR1
Flight time N/A
Altitude VFR
Route EAST
Aircraft F18S/M-VGD/C

Departure

Time 2026-04-26 23:19
Airport Lakeland Linder International Airport (KLAL)

Arrival

Time N/A
Airport Homestead Air Reserve Base (KHST)
Time Latitude Longitude Altitude Speed Heading
2026-04-26 23:09 27.98614 -82.02017 143 ft 0 kts 352°
2026-04-26 23:13 27.98615 -82.02018 143 ft 1 kts 343°
2026-04-26 23:13 27.98610 -82.02050 146 ft 9 kts 260°
2026-04-26 23:13 27.98598 -82.02122 141 ft 10 kts 260°
2026-04-26 23:14 27.98586 -82.02198 139 ft 9 kts 242°
2026-04-26 23:14 27.98567 -82.02265 139 ft 9 kts 268°
2026-04-26 23:14 27.98613 -82.02294 138 ft 8 kts 355°
2026-04-26 23:14 27.98675 -82.02296 137 ft 9 kts 359°
2026-04-26 23:15 27.98723 -82.02287 137 ft 4 kts 49°
2026-04-26 23:15 27.98731 -82.02249 138 ft 8 kts 88°
2026-04-26 23:15 27.98734 -82.02161 141 ft 14 kts 88°
2026-04-26 23:15 27.98733 -82.02037 143 ft 16 kts 91°
2026-04-26 23:16 27.98732 -82.01917 143 ft 15 kts 90°
2026-04-26 23:16 27.98733 -82.01808 144 ft 13 kts 90°
2026-04-26 23:16 27.98733 -82.01721 146 ft 9 kts 90°
2026-04-26 23:16 27.98733 -82.01661 147 ft 6 kts 90°
2026-04-26 23:17 27.98733 -82.01565 147 ft 20 kts 90°
2026-04-26 23:17 27.98733 -82.01387 142 ft 23 kts 91°
2026-04-26 23:17 27.98732 -82.01211 141 ft 22 kts 90°
2026-04-26 23:17 27.98733 -82.01048 142 ft 20 kts 89°
2026-04-26 23:18 27.98735 -82.00894 140 ft 19 kts 89°
2026-04-26 23:18 27.98762 -82.00765 141 ft 16 kts 24°
2026-04-26 23:18 27.98843 -82.00759 142 ft 0 kts 356°
2026-04-26 23:19 27.98866 -82.00760 143 ft 7 kts 356°
2026-04-26 23:19 27.98925 -82.00796 145 ft 14 kts 294°
2026-04-26 23:19 27.98933 -82.01146 142 ft 144 kts 271°
2026-04-26 23:19 27.98987 -82.03195 1081 ft 383 kts 272°
2026-04-26 23:20 27.99935 -82.07023 1528 ft 637 kts 301°
2026-04-26 23:20 28.02470 -82.11667 3018 ft 741 kts 302°
2026-04-26 23:20 28.05309 -82.16817 4605 ft 780 kts 302°
2026-04-26 23:20 28.08687 -82.21572 5168 ft 794 kts 342°
2026-04-26 23:21 28.12929 -82.18675 4577 ft 821 kts 76°
2026-04-26 23:21 28.12727 -82.12217 4021 ft 834 kts 116°
2026-04-26 23:21 28.08274 -82.08222 3411 ft 832 kts 152°
2026-04-26 23:21 28.03244 -82.04999 3108 ft 827 kts 148°
2026-04-26 23:22 27.98325 -82.01742 1130 ft 821 kts 149°
2026-04-26 23:22 27.93452 -81.98382 2020 ft 807 kts 149°
2026-04-26 23:22 27.88695 -81.95032 4252 ft 807 kts 148°
2026-04-26 23:22 27.83900 -81.91625 6062 ft 821 kts 148°
2026-04-26 23:23 27.79030 -81.88151 7277 ft 835 kts 148°
2026-04-26 23:23 27.74089 -81.84626 8379 ft 845 kts 148°
2026-04-26 23:23 27.69071 -81.81047 9527 ft 856 kts 148°
2026-04-26 23:23 27.64005 -81.77436 10646 ft 866 kts 148°
2026-04-26 23:24 27.58883 -81.73787 11841 ft 874 kts 148°
2026-04-26 23:24 27.53721 -81.70110 13088 ft 878 kts 148°
2026-04-26 23:24 27.48548 -81.66427 14185 ft 881 kts 148°
2026-04-26 23:24 27.43354 -81.62731 15099 ft 883 kts 148°
2026-04-26 23:25 27.38161 -81.59036 15945 ft 884 kts 148°
2026-04-26 23:25 27.32963 -81.55338 16716 ft 885 kts 148°
2026-04-26 23:25 27.27754 -81.51635 17430 ft 885 kts 148°
2026-04-26 23:25 27.22585 -81.47891 16227 ft 889 kts 148°
2026-04-26 23:26 27.17335 -81.44772 15292 ft 797 kts 152°
2026-04-26 23:26 27.12734 -81.41827 15271 ft 732 kts 149°
2026-04-26 23:26 27.08550 -81.38789 14355 ft 708 kts 146°
2026-04-26 23:26 27.04636 -81.35592 12910 ft 701 kts 142°
2026-04-26 23:27 27.00908 -81.32084 11447 ft 699 kts 137°
2026-04-26 23:27 26.97478 -81.28215 9979 ft 700 kts 133°
2026-04-26 23:27 26.94243 -81.24139 8255 ft 698 kts 131°
2026-04-26 23:27 26.92095 -81.21353 6885 ft 701 kts 131°
2026-04-26 23:28 26.87601 -81.15881 4843 ft 773 kts 142°
2026-04-26 23:28 26.82568 -81.13293 3796 ft 822 kts 165°
2026-04-26 23:28 26.77020 -81.11613 3731 ft 827 kts 166°
2026-04-26 23:28 26.71438 -81.10013 3662 ft 829 kts 166°
2026-04-26 23:29 26.66565 -81.08628 10584 ft 642 kts 167°
2026-04-26 23:29 26.62347 -81.07398 19962 ft 644 kts 166°
2026-04-26 23:29 26.57496 -81.05959 20935 ft 772 kts 166°
2026-04-26 23:29 26.52073 -81.04371 21005 ft 830 kts 167°
2026-04-26 23:30 26.46337 -81.02637 20294 ft 871 kts 165°
2026-04-26 23:30 26.40471 -81.00653 19786 ft 888 kts 163°
2026-04-26 23:30 26.34617 -80.98394 19357 ft 894 kts 161°
2026-04-26 23:30 26.28805 -80.95869 18920 ft 896 kts 159°
2026-04-26 23:31 26.23025 -80.93253 18437 ft 898 kts 159°
2026-04-26 23:31 26.17229 -80.90630 17872 ft 899 kts 159°
2026-04-26 23:31 26.11440 -80.88009 17111 ft 901 kts 159°
2026-04-26 23:31 26.05697 -80.85411 16112 ft 904 kts 159°
2026-04-26 23:32 26.00024 -80.82844 15165 ft 824 kts 159°
2026-04-26 23:32 25.95050 -80.80580 13981 ft 740 kts 159°
2026-04-26 23:32 25.90417 -80.78465 12631 ft 702 kts 159°
2026-04-26 23:32 25.85990 -80.76442 11304 ft 677 kts 158°
2026-04-26 23:33 25.81705 -80.74480 9330 ft 655 kts 158°
2026-04-26 23:33 25.77507 -80.72559 7220 ft 661 kts 158°
2026-04-26 23:33 25.72798 -80.70418 6169 ft 789 kts 158°
2026-04-26 23:33 25.67547 -80.68041 5374 ft 833 kts 158°
2026-04-26 23:34 25.62132 -80.65594 4023 ft 841 kts 158°
2026-04-26 23:34 25.56721 -80.63151 2192 ft 835 kts 158°
2026-04-26 23:34 25.51378 -80.60739 891 ft 822 kts 158°
2026-04-26 23:34 25.46121 -80.58394 270 ft 808 kts 159°
2026-04-26 23:35 25.40936 -80.56137 396 ft 796 kts 159°
2026-04-26 23:35 25.37749 -80.54723 796 ft 659 kts 157°
2026-04-26 23:35 25.36410 -80.51412 1204 ft 466 kts 59°
2026-04-26 23:35 25.39001 -80.48371 1132 ft 371 kts 41°
2026-04-26 23:36 25.40935 -80.46773 1097 ft 325 kts 35°
2026-04-26 23:36 25.42102 -80.45839 1060 ft 287 kts 35°
2026-04-26 23:36 25.43566 -80.44668 1038 ft 235 kts 35°
2026-04-26 23:36 25.44709 -80.43637 779 ft 193 kts 44°
2026-04-26 23:37 25.45386 -80.42651 307 ft 149 kts 67°